User: anonymous   Login
Location: Shades State Park
(39.9310°N, 87.0690°W)
Time: 22:46:08
(UTC-04:00)
Language:

H-2A R/B - Orbit

View from above orbital plane
View from above orbital plane
View from above satellite
View from above satellite

Ground track
Ground track

The orbit data is extracted from the following two-line orbital elements,

1 27601U 02056E   14296.87126098  .00000457  00000-0  18341-3 0  2171
2 27601 098.4744 016.5140 0071511 278.8206 189.5500 14.31434399619408
Epoch (UTC): 23 October 2014 20:54:36
Eccentricity: 0.0071511
inclination: 98.4744°
perigee height: 736 km
apogee height: 838 km
right ascension of ascending node: 16.5140°
argument of perigee: 278.8206°
revolutions per day: 14.31434399
mean anomaly at epoch: 189.5500°
orbit number at epoch: 61940

The dashed part of the orbit path shows where the satellite is in the earth's shadow,  

DLR